Weather History for Wolf Point, MT

Change the Weather History Date:

Saturday, June 7, 2014

  Actual Average Record
Temperature  
Mean Temperature 54 °F -  
Max Temperature 72 °F 75 °F 80 °F (2006)
Min Temperature 35 °F 47 °F 35 °F (2014)
Degree Days  
Heating Degree Days 11    
Cooling Degree Days 0    
Growing Degree Days 4 (Base 50)    
Moisture  
Dew Point 37 °F    
Average Humidity 51    
Maximum Humidity 86    
Minimum Humidity 24    
Precipitation  
Precipitation T in 0.10 in 0.87 in (2011)
Month to date precipitation 0.11 0.73  
Year to date precipitation 3.24 4.43  
Sea Level Pressure  
Sea Level Pressure 30.11 in    
Wind  
Wind Speed 4 mph (SW)    
Max Wind Speed 16 mph    
Max Gust Speed 21 mph    
Visibility 10 miles    
Events Rain    
T = Trace of Precipitation, MM = Missing Value Source: NWS Daily Summary

Daily Weather History Graph

Daily Weather History Graph

Search for Another Location

Airport:

Trip Planner

Search our weather history database for the weather conditions in past years. The results will help you decide how hot, cold, wet, or windy it might be!

Date:

Astronomy

Jun. 07, 2014 Rise Set
Actual Time 5:03 AM MDT 8:59 PM MDT
Civil Twilight 4:22 AM MDT 9:40 PM MDT
Nautical Twilight 3:26 AM MDT 10:36 PM MDT
Astronomical Twilight 1:58 AM MDT 12:06 AM MDT
Moon 2:55 PM MDT (6/7) 1:52 AM MDT (6/7)
Length of Visible Light 17h 17m
Length of Day
15h 55m
Waxing Gibbous, 68% of the Moon is Illuminated
Jun 7
Waxing Gibbous
Jun 12
Full
Jun 19
Last Quarter
Jun 27
New
Jul 5
First Quarter

Hourly Weather History & Observations

Time (MDT) Temp. Windchill Dew Point Humidity Pressure Visibility Wind Dir Wind Speed Gust Speed Precip Events Conditions
12:53 AM 45.0 °F - 37.0 °F 74% 30.17 in 10.0 mi Calm Calm - N/A   Partly Cloudy
1:53 AM 42.1 °F - 35.1 °F 76% 30.17 in 10.0 mi Calm Calm - N/A   Clear
2:53 AM 42.1 °F - 35.1 °F 76% 30.18 in 10.0 mi Calm Calm - N/A   Clear
3:53 AM 37.9 °F 34.4 °F 34.0 °F 86% 30.19 in 10.0 mi WSW 4.6 mph - N/A   Clear
4:53 AM 36.0 °F 32.1 °F 32.0 °F 86% 30.19 in 10.0 mi West 4.6 mph - N/A   Clear
6:53 AM 46.0 °F - 37.0 °F 71% 30.19 in 10.0 mi Calm Calm - N/A   Clear
7:53 AM 51.1 °F - 39.0 °F 63% 30.19 in 10.0 mi WSW 4.6 mph - N/A   Clear
8:53 AM 55.4 °F - 41.0 °F 58% 30.17 in 10.0 mi Calm Calm - N/A   Clear
9:53 AM 60.1 °F - 37.9 °F 44% 30.16 in 10.0 mi Calm Calm - N/A   Clear
10:53 AM 63.0 °F - 37.9 °F 40% 30.14 in 10.0 mi Variable 4.6 mph - N/A   Clear
11:53 AM 66.0 °F - 37.0 °F 34% 30.12 in 10.0 mi Variable 3.5 mph - N/A   Mostly Cloudy
12:53 PM 69.1 °F - 35.1 °F 29% 30.10 in 10.0 mi South 10.4 mph - N/A   Partly Cloudy
1:53 PM 68.0 °F - 33.1 °F 27% 30.09 in 10.0 mi Variable 4.6 mph - N/A   Mostly Cloudy
2:53 PM 70.0 °F - 32.0 °F 25% 30.07 in 10.0 mi SSW 9.2 mph - N/A   Mostly Cloudy
3:53 PM 71.1 °F - 32.0 °F 24% 30.06 in 10.0 mi South 8.1 mph 20.7 mph N/A   Partly Cloudy
4:53 PM 71.1 °F - 35.1 °F 27% 30.05 in 10.0 mi South 9.2 mph - N/A   Mostly Cloudy
5:53 PM 69.1 °F - 32.0 °F 25% 30.04 in 10.0 mi South 8.1 mph - N/A   Partly Cloudy
6:53 PM 70.0 °F - 33.1 °F 26% 30.02 in 10.0 mi South 6.9 mph - N/A   Clear
7:53 PM 66.9 °F - 34.0 °F 30% 30.02 in 10.0 mi South 11.5 mph - N/A   Clear
8:53 PM 62.1 °F - 36.0 °F 38% 30.02 in 10.0 mi South 4.6 mph - N/A   Partly Cloudy
9:42 PM 57.0 °F - 46.0 °F 67% 30.05 in 10.0 mi NW 16.1 mph - 0.00 in Rain Light Rain
9:53 PM 57.0 °F - 46.0 °F 67% 30.06 in 10.0 mi NW 11.5 mph - 0.00 in   Overcast
10:53 PM 57.0 °F - 45.0 °F 64% 30.05 in 10.0 mi NNW 11.5 mph - 0.00 in   Overcast
11:53 PM 55.9 °F - 46.0 °F 69% 30.04 in 10.0 mi NNE 11.5 mph - N/A   Overcast